TimeCST,TemperatureF,Dew PointF,Humidity,Sea Level PressureIn,VisibilityMPH,Wind Direction,Wind SpeedMPH,Gust SpeedMPH,PrecipitationIn,Events,Conditions,WindDirDegrees,DateUTC
12:53 AM,30.0,27.0,88,30.09,7.0,Calm,Calm,-,N/A,,Partly Cloudy,0,2012-11-20 06:53:00
2:53 AM,28.0,25.0,88,30.11,5.0,Calm,Calm,-,N/A,,Clear,0,2012-11-20 08:53:00
3:53 AM,25.0,21.9,88,30.13,5.0,Calm,Calm,-,N/A,,Clear,0,2012-11-20 09:53:00
3:56 AM,24.8,21.2,86,30.10,1.8,Calm,Calm,-,N/A,,Clear,0,2012-11-20 09:56:00
4:14 AM,26.6,23.0,86,30.10,1.2,Calm,Calm,-,N/A,,Partly Cloudy,0,2012-11-20 10:14:00
4:21 AM,26.6,24.8,93,30.10,3.0,Calm,Calm,-,N/A,,Partly Cloudy,0,2012-11-20 10:21:00
4:36 AM,26.6,21.2,80,30.10,4.0,Calm,Calm,-,N/A,,Mostly Cloudy,0,2012-11-20 10:36:00
4:53 AM,24.1,21.0,88,30.14,4.0,Calm,Calm,-,N/A,,Overcast,0,2012-11-20 10:53:00
4:56 AM,24.8,21.2,86,30.09,1.5,Calm,Calm,-,N/A,,Overcast,0,2012-11-20 10:56:00
5:04 AM,26.6,23.0,86,30.10,0.2,Calm,Calm,-,N/A,Fog,Light Freezing Fog,0,2012-11-20 11:04:00
6:53 AM,27.0,26.1,96,30.13,0.2,Calm,Calm,-,N/A,Fog,Light Freezing Fog,0,2012-11-20 12:53:00
7:53 AM,28.0,27.0,96,30.17,0.2,Calm,Calm,-,N/A,Fog,Light Freezing Fog,0,2012-11-20 13:53:00
8:53 AM,30.9,28.9,92,30.19,0.2,Calm,Calm,-,N/A,Fog,Light Freezing Fog,0,2012-11-20 14:53:00
9:53 AM,32.0,30.9,96,30.19,0.2,Calm,Calm,-,N/A,Fog,Fog,0,2012-11-20 15:53:00
10:53 AM,34.0,32.0,92,30.19,0.2,Calm,Calm,-,N/A,Fog,Fog,0,2012-11-20 16:53:00
11:53 AM,34.0,33.1,96,30.18,0.2,Calm,Calm,-,N/A,Fog,Fog,0,2012-11-20 17:53:00
12:41 PM,35.6,33.8,93,30.12,1.2,Calm,Calm,-,N/A,,Overcast,0,2012-11-20 18:41:00
12:53 PM,35.1,34.0,96,30.17,2.0,Calm,Calm,-,N/A,,Overcast,0,2012-11-20 18:53:00
1:04 PM,35.6,33.8,93,30.13,3.0,Calm,Calm,-,N/A,,Overcast,0,2012-11-20 19:04:00
1:26 PM,37.4,33.8,87,30.12,6.0,Calm,Calm,-,N/A,,Scattered Clouds,0,2012-11-20 19:26:00
1:53 PM,41.0,35.1,79,30.17,6.0,Calm,Calm,-,N/A,,Haze,0,2012-11-20 19:53:00
2:53 PM,43.0,35.1,74,30.15,9.0,Calm,Calm,-,N/A,,Clear,0,2012-11-20 20:53:00
3:53 PM,42.1,34.0,73,30.16,10.0,Calm,Calm,-,N/A,,Clear,0,2012-11-20 21:53:00
4:53 PM,34.0,30.0,85,30.17,7.0,Calm,Calm,-,N/A,,Clear,0,2012-11-20 22:53:00
5:02 PM,30.2,28.4,93,30.11,1.8,Calm,Calm,-,N/A,,Clear,0,2012-11-20 23:02:00
5:12 PM,30.2,26.6,86,30.11,3.0,Calm,Calm,-,N/A,,Clear,0,2012-11-20 23:12:00
5:23 PM,30.2,28.4,93,30.11,2.0,Calm,Calm,-,N/A,,Clear,0,2012-11-20 23:23:00
5:34 PM,30.2,28.4,93,30.11,3.0,Calm,Calm,-,N/A,,Clear,0,2012-11-20 23:34:00
5:53 PM,28.0,25.0,88,30.17,3.0,Calm,Calm,-,N/A,,Clear,0,2012-11-20 23:53:00
6:24 PM,26.6,24.8,93,30.11,1.2,Calm,Calm,-,N/A,,Clear,0,2012-11-21 00:24:00
6:35 PM,26.6,23.0,86,30.10,3.0,Calm,Calm,-,N/A,,Clear,0,2012-11-21 00:35:00
6:46 PM,26.6,23.0,86,30.10,2.5,Calm,Calm,-,N/A,,Clear,0,2012-11-21 00:46:00
6:53 PM,27.0,23.0,85,30.16,1.8,Calm,Calm,-,N/A,,Clear,0,2012-11-21 00:53:00
7:06 PM,26.6,24.8,93,30.09,2.5,Calm,Calm,-,N/A,,Clear,0,2012-11-21 01:06:00
7:13 PM,26.6,24.8,93,30.09,3.0,Calm,Calm,-,N/A,,Clear,0,2012-11-21 01:13:00
7:53 PM,25.0,23.0,92,30.13,5.0,Calm,Calm,-,N/A,,Clear,0,2012-11-21 01:53:00
8:53 PM,24.1,21.0,88,30.14,6.0,Calm,Calm,-,N/A,,Clear,0,2012-11-21 02:53:00
9:53 PM,24.1,21.0,88,30.14,5.0,Calm,Calm,-,N/A,,Clear,0,2012-11-21 03:53:00
10:53 PM,24.1,21.0,88,30.13,5.0,Calm,Calm,-,N/A,,Clear,0,2012-11-21 04:53:00
11:53 PM,23.0,19.9,88,30.12,6.0,Calm,Calm,-,N/A,,Clear,0,2012-11-21 05:53:00